Change the Weather History Date:

Saturday, February 4, 2012

  Actual Average Record
Temperature  
Mean Temperature 28 °F 19 °F  
Max Temperature 38 °F 27 °F 53 °F (1991)
Min Temperature 17 °F 10 °F -24 °F (1978)
Degree Days  
Heating Degree Days 37 46  
Month to date heating degree days 131 184  
Since 1 July heating degree days 4028 4666  
Moisture  
Dew Point 24 °F    
Average Humidity 78    
Maximum Humidity 92    
Minimum Humidity 64    
Precipitation  
Precipitation 0.00 in 0.04 in 0.64 in (1936)
Month to date precipitation T 0.17  
Year to date precipitation 1.77 1.83  
Snow  
Snow 0.00 in 0.60 in 7.80 in (1934)
Month to date snowfall T 2.6  
Since 1 July snowfall 25.9 51.2  
Snow Depth 3.00 in    
Sea Level Pressure  
Sea Level Pressure 30.29 in    
Wind  
Wind Speed 2 mph (SSW)    
Max Wind Speed 12 mph    
Max Gust Speed 14 mph    
Visibility 10 miles    
Events      
T = Trace of Precipitation, MM = Missing Value Source: NWS Daily Summary

Daily Weather History Graph

Daily Weather History Graph

Search for Another Location

Airport or City:

Trip Planner

Search our weather history database for the weather conditions in past years. The results will help you decide how hot, cold, wet, or windy it might be!

Date:

Astronomy

Feb. 04, 2012 Rise Set
Actual Time 7:51 AM EST 5:45 PM EST
Civil Twilight 7:20 AM EST 6:16 PM EST
Nautical Twilight 6:45 AM EST 6:51 PM EST
Astronomical Twilight 6:10 AM EST 7:26 PM EST
Moon 2:36 PM EST (2/4) 5:21 AM EST (2/4)
Length of Visible Light 10h 56m
Length of Day
9h 54m
Waxing Gibbous, 89% of the Moon is Illuminated
Feb 4
Waxing Gibbous
Feb 7
Full
Feb 14
Last Quarter
Feb 21
New
Feb 29
First Quarter

Hourly Weather History & Observations

Time (EST) Temp. Windchill Dew Point Humidity Pressure Visibility Wind Dir Wind Speed Gust Speed Precip Events Conditions
12:54 AM 26.1 °F 21.9 °F 21.9 °F 84% 30.43 in 10.0 mi WNW 3.5 mph - N/A   Clear
1:54 AM 19.0 °F - 17.1 °F 92% 30.42 in 10.0 mi Calm Calm - N/A   Clear
2:54 AM 21.9 °F - 19.9 °F 92% 30.41 in 10.0 mi Calm Calm - N/A   Clear
3:54 AM 19.9 °F - 17.1 °F 89% 30.40 in 10.0 mi Calm Calm - N/A   Clear
4:45 AM 19.4 °F - 17.6 °F 93% 30.36 in 10.0 mi Calm Calm - N/A   Mostly Cloudy
4:54 AM 21.0 °F - 19.9 °F 96% 30.40 in 10.0 mi Calm Calm - N/A   Overcast
5:54 AM 25.0 °F 20.7 °F 23.0 °F 92% 30.41 in 10.0 mi WSW 3.5 mph - N/A   Overcast
6:54 AM 26.1 °F - 24.1 °F 92% 30.39 in 10.0 mi Calm Calm - N/A   Overcast
7:54 AM 27.0 °F - 24.1 °F 89% 30.38 in 10.0 mi Calm Calm - N/A   Overcast
8:54 AM 27.0 °F - 25.0 °F 92% 30.38 in 10.0 mi Calm Calm - N/A   Overcast
9:54 AM 28.9 °F - 26.1 °F 89% 30.36 in 10.0 mi Calm Calm - N/A   Overcast
10:00 AM 28.4 °F - 24.8 °F 86% 30.32 in 10.0 mi Calm Calm - N/A   Overcast
10:54 AM 30.0 °F 24.1 °F 26.1 °F 85% 30.35 in 10.0 mi SW 5.8 mph - N/A   Overcast
11:54 AM 32.0 °F 26.4 °F 26.1 °F 79% 30.30 in 10.0 mi South 5.8 mph - N/A   Mostly Cloudy
12:54 PM 34.0 °F 27.2 °F 26.1 °F 73% 30.27 in 10.0 mi SSW 8.1 mph - N/A   Mostly Cloudy
1:54 PM 35.1 °F 32.2 °F 26.1 °F 70% 30.26 in 10.0 mi WSW 3.5 mph - N/A   Mostly Cloudy
2:16 PM 35.6 °F 30.7 °F 26.6 °F 70% 30.21 in 10.0 mi Variable 5.8 mph - N/A   Mostly Cloudy
2:54 PM 36.0 °F 32.1 °F 26.1 °F 67% 30.22 in 10.0 mi South 4.6 mph - N/A   Partly Cloudy
3:54 PM 37.0 °F 32.4 °F 27.0 °F 67% 30.20 in 10.0 mi SSE 5.8 mph - N/A   Clear
4:54 PM 33.1 °F 26.9 °F 27.0 °F 78% 30.18 in 10.0 mi ESE 6.9 mph - N/A   Clear
5:54 PM 30.9 °F 26.2 °F 26.1 °F 82% 30.18 in 10.0 mi East 4.6 mph - N/A   Clear
6:54 PM 28.0 °F 22.8 °F 26.1 °F 92% 30.20 in 10.0 mi NNE 4.6 mph - N/A   Mostly Cloudy
7:39 PM 30.2 °F - 26.6 °F 86% 30.17 in 10.0 mi Calm Calm - N/A   Overcast
7:54 PM 30.0 °F - 27.0 °F 88% 30.20 in 10.0 mi Calm Calm - N/A   Overcast
8:54 PM 30.0 °F - 27.0 °F 88% 30.21 in 10.0 mi Calm Calm - N/A   Overcast
9:54 PM 30.0 °F - 27.0 °F 88% 30.20 in 10.0 mi Calm Calm - N/A   Overcast
10:25 PM 30.2 °F - 26.6 °F 86% 30.16 in 10.0 mi Calm Calm - N/A   Overcast
10:54 PM 30.9 °F - 26.1 °F 82% 30.19 in 10.0 mi Calm Calm - N/A   Overcast
11:54 PM 30.0 °F - 26.1 °F 85% 30.19 in 10.0 mi Calm Calm - N/A   Overcast